• In Deutschland
  • Länderverzeichnis
  • Für 7 Tage
  • Wassertemperatur
  • Satellitenkarten
  • Wetterkarte
  • Widgets
  • user-avatar
    Anmelden

    Stündliche Wetter Eydelstedt

    Heute, 22 Februar, Donnerstag

    Zeit Temperatur Niederschläge Wind Luftdruck Luftfeuchtigkeit
    00:00 -4°C° 0 mm 3 m/S 766 mmHg 81%
    01:00 -3°C° 0 mm 2 m/S 767 mmHg 84%
    02:00 -3°C° 0 mm 2 m/S 766 mmHg 86%
    03:00 -3°C° 0 mm 2 m/S 766 mmHg 87%
    04:00 -4°C° 0 mm 2 m/S 766 mmHg 89%
    05:00 -4°C° 0 mm 2 m/S 766 mmHg 89%
    06:00 -4°C° 0 mm 2 m/S 766 mmHg 90%
    07:00 -4°C° 0 mm 2 m/S 766 mmHg 90%
    08:00 -3°C° 0 mm 2 m/S 766 mmHg 83%
    09:00 -2°C° 0 mm 3 m/S 766 mmHg 76%
    10:00 0°C° 0 mm 3 m/S 766 mmHg 69%
    11:00 +1°C° 0 mm 3 m/S 766 mmHg 64%
    12:00 +1°C° 0 mm 3 m/S 766 mmHg 59%
    13:00 +2°C° 0 mm 3 m/S 766 mmHg 54%
    14:00 +1°C° 0 mm 4 m/S 765 mmHg 55%
    15:00 +1°C° 0 mm 4 m/S 765 mmHg 57%
    16:00 +1°C° 0 mm 4 m/S 765 mmHg 58%
    17:00 +1°C° 0 mm 3 m/S 765 mmHg 64%
    18:00 0°C° 0 mm 3 m/S 765 mmHg 70%
    19:00 -1°C° 0 mm 3 m/S 765 mmHg 76%
    20:00 -2°C° 0 mm 3 m/S 765 mmHg 79%
    21:00 -2°C° 0 mm 2 m/S 765 mmHg 82%
    22:00 -3°C° 0 mm 2 m/S 765 mmHg 85%
    23:00 -3°C° 0 mm 2 m/S 765 mmHg 86%

    Morgen, 23 Februar, Freitag

    Zeit Temperatur Niederschläge Wind Luftdruck Luftfeuchtigkeit
    00:00 -3°C° 0 mm 2 m/S 765 mmHg 87%
    01:00 -3°C° 0 mm 2 m/S 765 mmHg 89%
    02:00 -4°C° 0 mm 2 m/S 765 mmHg 89%
    03:00 -4°C° 0 mm 2 m/S 765 mmHg 89%
    04:00 -4°C° 0 mm 2 m/S 765 mmHg 89%
    05:00 -4°C° 0 mm 2 m/S 765 mmHg 88%
    06:00 -5°C° 0 mm 3 m/S 765 mmHg 87%
    07:00 -5°C° 0 mm 3 m/S 765 mmHg 86%
    08:00 -4°C° 0 mm 3 m/S 765 mmHg 77%
    09:00 -3°C° 0 mm 4 m/S 766 mmHg 68%
    10:00 -2°C° 0 mm 5 m/S 766 mmHg 60%
    11:00 -2°C° 0 mm 5 m/S 766 mmHg 55%
    12:00 -1°C° 0 mm 5 m/S 765 mmHg 50%
    13:00 0°C° 0 mm 5 m/S 765 mmHg 44%
    14:00 0°C° 0 mm 5 m/S 765 mmHg 42%
    15:00 -1°C° 0 mm 6 m/S 765 mmHg 40%
    16:00 -1°C° 0 mm 6 m/S 764 mmHg 38%
    17:00 -1°C° 0 mm 5 m/S 765 mmHg 42%
    18:00 -4°C° 0 mm 5 m/S 765 mmHg 45%
    19:00 -4°C° 0 mm 4 m/S 765 mmHg 49%
    20:00 -5°C° 0 mm 5 m/S 765 mmHg 49%
    21:00 -5°C° 0 mm 5 m/S 766 mmHg 49%
    22:00 -6°C° 0 mm 5 m/S 766 mmHg 49%
    23:00 -6°C° 0 mm 5 m/S 766 mmHg 48%

    übermorgen, 24 Februar, Samstag

    Zeit Temperatur Niederschläge Wind Luftdruck Luftfeuchtigkeit
    00:00 -6°C° 0 mm 5 m/S 766 mmHg 47%
    01:00 -6°C° 0 mm 5 m/S 766 mmHg 46%
    02:00 -6°C° 0 mm 5 m/S 766 mmHg 47%
    03:00 -6°C° 0 mm 6 m/S 766 mmHg 47%
    04:00 -6°C° 0 mm 6 m/S 766 mmHg 47%
    05:00 -6°C° 0 mm 6 m/S 766 mmHg 50%
    06:00 -6°C° 0 mm 5 m/S 766 mmHg 54%
    07:00 -6°C° 0 mm 5 m/S 766 mmHg 57%
    08:00 -5°C° 0 mm 6 m/S 767 mmHg 57%
    09:00 -4°C° 0 mm 7 m/S 767 mmHg 57%
    10:00 -4°C° 0 mm 8 m/S 767 mmHg 57%
    11:00 -2°C° 0 mm 8 m/S 767 mmHg 55%
    12:00 -1°C° 0 mm 8 m/S 767 mmHg 53%
    13:00 0°C° 0 mm 8 m/S 767 mmHg 51%
    14:00 -1°C° 0 mm 7 m/S 767 mmHg 48%
    15:00 -1°C° 0 mm 7 m/S 767 mmHg 45%
    16:00 -1°C° 0 mm 7 m/S 767 mmHg 41%
    17:00 -2°C° 0 mm 7 m/S 767 mmHg 45%
    18:00 -4°C° 0 mm 6 m/S 768 mmHg 48%
    19:00 -5°C° 0 mm 6 m/S 768 mmHg 52%
    20:00 -5°C° 0 mm 6 m/S 768 mmHg 53%
    21:00 -5°C° 0 mm 6 m/S 768 mmHg 54%
    22:00 -6°C° 0 mm 6 m/S 769 mmHg 55%
    23:00 -6°C° 0 mm 6 m/S 769 mmHg 54%

    25 Februar, Sonntag

    Zeit Temperatur Niederschläge Wind Luftdruck Luftfeuchtigkeit
    00:00 -6°C° 0 mm 6 m/S 769 mmHg 54%
    01:00 -6°C° 0 mm 6 m/S 769 mmHg 53%
    02:00 -8°C° 0 mm 6 m/S 769 mmHg 50%
    03:00 -8°C° 0 mm 6 m/S 769 mmHg 48%
    04:00 -8°C° 0 mm 6 m/S 769 mmHg 45%
    05:00 -8°C° 0 mm 6 m/S 769 mmHg 44%
    06:00 -9°C° 0 mm 6 m/S 769 mmHg 42%
    07:00 -9°C° 0 mm 6 m/S 769 mmHg 40%
    08:00 -8°C° 0 mm 6 m/S 770 mmHg 37%
    09:00 -6°C° 0 mm 6 m/S 770 mmHg 35%
    10:00 -6°C° 0 mm 6 m/S 770 mmHg 32%
    11:00 -5°C° 0 mm 6 m/S 770 mmHg 32%
    12:00 -4°C° 0 mm 6 m/S 770 mmHg 31%
    13:00 -4°C° 0 mm 6 m/S 769 mmHg 31%
    14:00 -4°C° 0 mm 6 m/S 769 mmHg 33%
    15:00 -4°C° 0 mm 6 m/S 769 mmHg 36%
    16:00 -4°C° 0 mm 6 m/S 769 mmHg 38%
    17:00 -4°C° 0 mm 6 m/S 769 mmHg 44%
    18:00 -5°C° 0 mm 5 m/S 769 mmHg 50%
    19:00 -5°C° 0 mm 4 m/S 769 mmHg 56%
    20:00 -5°C° 0 mm 4 m/S 769 mmHg 59%
    21:00 -7°C° 0 mm 4 m/S 769 mmHg 61%
    22:00 -7°C° 0 mm 5 m/S 769 mmHg 63%
    23:00 -7°C° 0 mm 4 m/S 769 mmHg 63%

    26 Februar, Montag

    Zeit Temperatur Niederschläge Wind Luftdruck Luftfeuchtigkeit
    00:00 -7°C° 0 mm 4 m/S 769 mmHg 63%
    01:00 -7°C° 0 mm 4 m/S 769 mmHg 62%
    02:00 -8°C° 0 mm 4 m/S 769 mmHg 64%
    03:00 -8°C° 0 mm 4 m/S 768 mmHg 66%
    04:00 -8°C° 0 mm 4 m/S 768 mmHg 68%
    05:00 -8°C° 0 mm 4 m/S 768 mmHg 69%
    06:00 -8°C° 0 mm 4 m/S 768 mmHg 71%
    07:00 -8°C° 0 mm 4 m/S 768 mmHg 73%
    08:00 -8°C° 0 mm 5 m/S 768 mmHg 67%
    09:00 -7°C° 0 mm 5 m/S 768 mmHg 61%
    10:00 -6°C° 0 mm 6 m/S 768 mmHg 55%
    11:00 -6°C° 0,1 mm 6 m/S 767 mmHg 51%
    12:00 -5°C° 0,1 mm 6 m/S 767 mmHg 48%
    13:00 -5°C° 0,1 mm 6 m/S 767 mmHg 45%
    14:00 -5°C° 0,1 mm 6 m/S 766 mmHg 45%
    15:00 -5°C° 0,1 mm 6 m/S 766 mmHg 46%
    16:00 -5°C° 0,1 mm 6 m/S 765 mmHg 46%
    17:00 -6°C° 0 mm 5 m/S 765 mmHg 50%
    18:00 -5°C° 0 mm 4 m/S 765 mmHg 55%
    19:00 -7°C° 0 mm 4 m/S 765 mmHg 59%
    20:00 -7°C° 0 mm 4 m/S 765 mmHg 61%
    21:00 -8°C° 0 mm 4 m/S 765 mmHg 63%
    22:00 -8°C° 0 mm 4 m/S 765 mmHg 65%
    23:00 -8°C° 0 mm 4 m/S 765 mmHg 66%

    27 Februar, Dienstag

    Zeit Temperatur Niederschläge Wind Luftdruck Luftfeuchtigkeit
    00:00 -8°C° 0 mm 3 m/S 764 mmHg 66%
    01:00 -8°C° 0 mm 3 m/S 764 mmHg 67%
    02:00 -8°C° 0 mm 3 m/S 764 mmHg 68%
    03:00 -8°C° 0 mm 3 m/S 763 mmHg 70%
    04:00 -8°C° 0 mm 3 m/S 763 mmHg 72%
    05:00 -7°C° 0 mm 2 m/S 763 mmHg 75%
    06:00 -7°C° 0 mm 2 m/S 763 mmHg 78%
    07:00 -7°C° 0 mm 2 m/S 762 mmHg 80%
    08:00 -7°C° 0 mm 2 m/S 762 mmHg 76%
    09:00 -7°C° 0 mm 3 m/S 762 mmHg 72%
    10:00 -6°C° 0 mm 3 m/S 762 mmHg 67%
    11:00 -5°C° 0 mm 3 m/S 762 mmHg 61%
    12:00 -4°C° 0 mm 3 m/S 762 mmHg 54%
    13:00 -4°C° 0 mm 3 m/S 762 mmHg 47%
    14:00 -4°C° 0 mm 3 m/S 761 mmHg 44%
    15:00 -4°C° 0 mm 3 m/S 761 mmHg 40%
    16:00 -4°C° 0 mm 3 m/S 761 mmHg 37%
    17:00 -5°C° 0 mm 3 m/S 761 mmHg 40%
    18:00 -4°C° 0 mm 2 m/S 762 mmHg 43%
    19:00 -5°C° 0 mm 2 m/S 762 mmHg 45%
    20:00 -6°C° 0 mm 2 m/S 762 mmHg 47%
    21:00 -6°C° 0 mm 2 m/S 763 mmHg 48%
    22:00 -6°C° 0 mm 2 m/S 763 mmHg 50%
    23:00 -7°C° 0 mm 2 m/S 763 mmHg 49%
    Mehr zeigen